| time (UTC) | temp F | wind direction | speed MPH | gust MPH | rain 1hr in | rain 24hr in | rain mn in | humidity % | barometer mb |
| 20260508014322 | 61 | 136 | 0.0 | 0.0 | 0.00 | 0.00 | 0.00 | 95 | 1006.6 |
| 20260508013822 | 61 | 136 | 0.0 | 0.0 | 0.00 | 0.00 | 0.00 | 95 | 1006.6 |
| 20260508013319 | 61 | 136 | 0.0 | 0.0 | 0.00 | 0.00 | 0.00 | 95 | 1006.6 |
| 20260508012819 | 61 | 136 | 0.0 | 0.0 | 0.00 | 0.00 | 0.00 | 95 | 1006.6 |
| 20260508012322 | 61 | 134 | 0.0 | 0.0 | 0.00 | 0.00 | 0.00 | 95 | 1006.6 |
| 20260508011819 | 61 | 128 | 0.0 | 0.0 | 0.00 | 0.00 | 0.00 | 95 | 1006.6 |
| 20260508011319 | 61 | 128 | 0.0 | 0.0 | 0.00 | 0.00 | 0.00 | 95 | 1006.5 |
| 20260508010819 | 61 | 128 | 0.0 | 0.0 | 0.00 | 0.00 | 0.00 | 95 | 1006.5 |
| 20260508010318 | 61 | 128 | 0.0 | 0.0 | 0.00 | 0.00 | 0.00 | 95 | 1006.5 |
| 20260508005819 | 61 | 128 | 0.0 | 0.0 | 0.00 | 0.00 | 0.00 | 94 | 1006.4 |
| 20260508005319 | 61 | 124 | 0.0 | 0.0 | 0.00 | 0.00 | 0.00 | 95 | 1006.4 |
| 20260508004819 | 61 | 125 | 0.0 | 0.0 | 0.00 | 0.00 | 0.00 | 95 | 1006.4 |
| 20260508004321 | 61 | 128 | 0.0 | 0.0 | 0.00 | 0.00 | 0.00 | 95 | 1006.7 |
| 20260508003821 | 61 | 128 | 0.0 | 0.0 | 0.00 | 0.00 | 0.00 | 95 | 1006.7 |
| 20260508003318 | 61 | 128 | 0.0 | 0.0 | 0.00 | 0.00 | 0.00 | 95 | 1006.7 |
| 20260508002818 | 61 | 124 | 0.0 | 0.0 | 0.00 | 0.00 | 0.00 | 95 | 1007.0 |
| 20260508002321 | 61 | 109 | 0.0 | 0.0 | 0.00 | 0.00 | 0.00 | 95 | 1007.0 |
| 20260508001821 | 61 | 109 | 0.0 | 0.0 | 0.00 | 0.00 | 0.00 | 95 | 1007.0 |
| 20260508001318 | 61 | 109 | 0.0 | 0.0 | 0.00 | 0.00 | 0.00 | 94 | 1007.1 |
| 20260508000821 | 61 | 109 | 0.0 | 0.0 | 0.00 | 0.00 | 0.00 | 94 | 1007.1 |
| 20260508000320 | 61 | 109 | 0.0 | 1.0 | 0.00 | 0.00 | 0.00 | 94 | 1007.1 |
| 20260507235821 | 61 | 109 | 0.0 | 0.0 | 0.00 | 0.00 | 0.00 | 94 | 1007.1 |
| 20260507235321 | 61 | 109 | 0.0 | 0.0 | 0.00 | 0.00 | 0.00 | 94 | 1007.1 |
| 20260507234821 | 61 | 109 | 0.0 | 0.0 | 0.00 | 0.00 | 0.00 | 94 | 1007.1 |
| 20260507234321 | 61 | 109 | 0.0 | 0.0 | 0.00 | 0.00 | 0.00 | 94 | 1007.3 |
| 20260507233822 | 61 | 109 | 0.0 | 0.0 | 0.00 | 0.00 | 0.00 | 94 | 1007.3 |
| 20260507233318 | 61 | 109 | 0.0 | 0.0 | 0.00 | 0.00 | 0.00 | 94 | 1007.3 |
| 20260507232818 | 62 | 109 | 0.0 | 0.0 | 0.00 | 0.00 | 0.00 | 94 | 1007.5 |
| 20260507232321 | 62 | 109 | 0.0 | 0.0 | 0.00 | 0.00 | 0.00 | 94 | 1007.5 |
| 20260507231818 | 62 | 111 | 0.0 | 0.0 | 0.00 | 0.00 | 0.00 | 94 | 1007.5 |
| 20260507231321 | 62 | 111 | 0.0 | 0.0 | 0.00 | 0.00 | 0.00 | 94 | 1007.6 |
| 20260507230818 | 62 | 111 | 0.0 | 1.0 | 0.00 | 0.00 | 0.00 | 94 | 1007.6 |
| 20260507230318 | 62 | 111 | 0.0 | 0.0 | 0.00 | 0.00 | 0.00 | 94 | 1007.6 |
| 20260507225821 | 62 | 111 | 0.0 | 0.0 | 0.00 | 0.00 | 0.00 | 94 | 1007.8 |
| 20260507225321 | 62 | 111 | 0.0 | 0.0 | 0.00 | 0.00 | 0.00 | 94 | 1007.8 |
| 20260507224821 | 62 | 111 | 0.0 | 0.0 | 0.00 | 0.00 | 0.00 | 93 | 1007.8 |
| 20260507224321 | 62 | 111 | 0.0 | 0.0 | 0.00 | 0.00 | 0.00 | 93 | 1008.0 |
| 20260507223818 | 62 | 111 | 0.0 | 0.0 | 0.00 | 0.00 | 0.00 | 93 | 1008.0 |
| 20260507223322 | 62 | 111 | 0.0 | 0.0 | 0.00 | 0.00 | 0.00 | 93 | 1008.0 |
| 20260507222819 | 62 | 111 | 0.0 | 0.0 | 0.00 | 0.00 | 0.00 | 93 | 1007.9 |
| 20260507222318 | 62 | 100 | 0.0 | 0.0 | 0.00 | 0.00 | 0.00 | 93 | 1007.9 |
| 20260507221821 | 62 | 100 | 0.0 | 0.0 | 0.00 | 0.00 | 0.00 | 93 | 1007.9 |
| 20260507221321 | 62 | 100 | 0.0 | 1.0 | 0.00 | 0.00 | 0.00 | 93 | 1008.0 |
| 20260507220818 | 62 | 100 | 0.0 | 0.0 | 0.00 | 0.00 | 0.00 | 93 | 1008.0 |
| 20260507220318 | 62 | 99 | 0.0 | 0.0 | 0.00 | 0.00 | 0.00 | 93 | 1008.0 |
| 20260507215821 | 62 | 100 | 0.0 | 0.0 | 0.00 | 0.00 | 0.00 | 93 | 1008.1 |
| 20260507215321 | 62 | 100 | 0.0 | 0.0 | 0.00 | 0.00 | 0.00 | 93 | 1008.1 |
| 20260507214818 | 62 | 100 | 0.0 | 2.0 | 0.00 | 0.00 | 0.00 | 93 | 1008.1 |
| 20260507214321 | 62 | 51 | 1.0 | 1.0 | 0.00 | 0.00 | 0.00 | 93 | 1008.2 |
| 20260507213821 | 62 | 338 | 0.0 | 1.0 | 0.00 | 0.00 | 0.00 | 93 | 1008.2 |
| 20260507213318 | 62 | 330 | 0.0 | 0.0 | 0.00 | 0.00 | 0.00 | 93 | 1008.2 |
| 20260507212822 | 62 | 330 | 0.0 | 0.0 | 0.00 | 0.00 | 0.00 | 92 | 1008.2 |
| 20260507212321 | 62 | 330 | 0.0 | 0.0 | 0.00 | 0.00 | 0.00 | 92 | 1008.2 |
| 20260507211818 | 62 | 330 | 0.0 | 0.0 | 0.00 | 0.00 | 0.00 | 92 | 1008.2 |
| 20260507211318 | 62 | 330 | 0.0 | 0.0 | 0.00 | 0.00 | 0.00 | 92 | 1008.2 |
| 20260507210821 | 62 | 330 | 0.0 | 1.0 | 0.00 | 0.00 | 0.00 | 92 | 1008.2 |
| 20260507210321 | 63 | 330 | 0.0 | 2.0 | 0.00 | 0.00 | 0.00 | 92 | 1008.2 |
| 20260507205821 | 63 | 330 | 0.0 | 2.0 | 0.00 | 0.00 | 0.00 | 91 | 1008.3 |
| 20260507205321 | 63 | 74 | 0.0 | 0.0 | 0.00 | 0.00 | 0.00 | 91 | 1008.3 |
| 20260507204821 | 63 | 74 | 0.0 | 0.0 | 0.00 | 0.00 | 0.00 | 91 | 1008.3 |
| 20260507204318 | 63 | 74 | 0.0 | 0.0 | 0.00 | 0.00 | 0.00 | 91 | 1008.3 |
| 20260507203821 | 63 | 74 | 0.0 | 0.0 | 0.00 | 0.00 | 0.00 | 91 | 1008.3 |
| 20260507203321 | 63 | 74 | 0.0 | 0.0 | 0.00 | 0.00 | 0.00 | 91 | 1008.3 |
| 20260507202821 | 63 | 74 | 0.0 | 0.0 | 0.00 | 0.00 | 0.00 | 90 | 1008.6 |
| 20260507202322 | 64 | 74 | 0.0 | 0.0 | 0.00 | 0.00 | 0.00 | 90 | 1008.6 |
| 20260507201821 | 64 | 74 | 0.0 | 0.0 | 0.00 | 0.00 | 0.00 | 90 | 1008.6 |
| 20260507201321 | 64 | 74 | 0.0 | 0.0 | 0.00 | 0.00 | 0.00 | 90 | 1008.6 |
| 20260507200821 | 64 | 74 | 0.0 | 2.0 | 0.00 | 0.00 | 0.00 | 90 | 1008.6 |
| 20260507200318 | 64 | 74 | 1.0 | 2.0 | 0.00 | 0.01 | 0.00 | 90 | 1008.6 |
| 20260507195818 | 64 | 69 | 0.0 | 1.0 | 0.00 | 0.01 | 0.00 | 89 | 1008.6 |
| 20260507195321 | 64 | 69 | 0.0 | 0.0 | 0.00 | 0.01 | 0.00 | 90 | 1008.6 |
| 20260507194818 | 64 | 69 | 0.0 | 2.0 | 0.00 | 0.01 | 0.00 | 89 | 1008.6 |
| 20260507194318 | 64 | 305 | 0.0 | 0.0 | 0.00 | 0.01 | 0.00 | 89 | 1008.5 |
| 20260507193821 | 64 | 306 | 1.0 | 3.0 | 0.00 | 0.01 | 0.00 | 89 | 1008.5 |
| 20260507193321 | 65 | 295 | 2.0 | 3.0 | 0.00 | 0.01 | 0.00 | 89 | 1008.5 |
| 20260507192821 | 65 | 300 | 0.0 | 1.0 | 0.00 | 0.01 | 0.00 | 88 | 1008.6 |
| 20260507192321 | 65 | 300 | 0.0 | 1.0 | 0.00 | 0.01 | 0.00 | 88 | 1008.6 |
| 20260507191817 | 65 | 300 | 0.0 | 2.0 | 0.00 | 0.01 | 0.00 | 88 | 1008.6 |
| 20260507191320 | 65 | 299 | 0.0 | 2.0 | 0.00 | 0.01 | 0.00 | 87 | 1008.6 |
| 20260507190817 | 66 | 295 | 2.0 | 3.0 | 0.00 | 0.01 | 0.00 | 87 | 1008.6 |
| 20260507190320 | 66 | 288 | 0.0 | 3.0 | 0.00 | 0.01 | 0.00 | 87 | 1008.6 |
| 20260507185820 | 66 | 281 | 2.0 | 3.0 | 0.00 | 0.01 | 0.00 | 87 | 1008.6 |
| 20260507185318 | 66 | 281 | 1.0 | 3.0 | 0.00 | 0.01 | 0.00 | 87 | 1008.6 |
| 20260507184817 | 66 | 288 | 2.0 | 3.0 | 0.00 | 0.01 | 0.00 | 86 | 1008.6 |
| 20260507184317 | 66 | 293 | 1.0 | 2.0 | 0.00 | 0.01 | 0.00 | 86 | 1008.6 |
| 20260507183818 | 66 | 293 | 0.0 | 1.0 | 0.00 | 0.01 | 0.00 | 86 | 1008.6 |
| 20260507183321 | 66 | 293 | 0.0 | 2.0 | 0.00 | 0.01 | 0.00 | 86 | 1008.6 |
| 20260507182817 | 67 | 295 | 0.0 | 3.0 | 0.00 | 0.01 | 0.00 | 86 | 1008.6 |
| 20260507182320 | 67 | 306 | 1.0 | 4.0 | 0.00 | 0.01 | 0.00 | 85 | 1008.6 |
| 20260507181817 | 67 | 299 | 2.0 | 4.0 | 0.00 | 0.01 | 0.00 | 85 | 1008.6 |
| 20260507181320 | 67 | 299 | 0.0 | 4.0 | 0.00 | 0.01 | 0.00 | 85 | 1008.7 |
| 20260507180820 | 67 | 301 | 0.0 | 4.0 | 0.00 | 0.01 | 0.00 | 85 | 1008.7 |
| 20260507180317 | 68 | 306 | 2.0 | 3.0 | 0.00 | 0.01 | 0.00 | 85 | 1008.7 |
| 20260507175817 | 68 | 286 | 1.0 | 4.0 | 0.00 | 0.01 | 0.00 | 84 | 1008.7 |
| 20260507175317 | 68 | 302 | 1.0 | 4.0 | 0.00 | 0.01 | 0.00 | 84 | 1008.7 |
| 20260507174820 | 68 | 308 | 1.0 | 5.0 | 0.00 | 0.01 | 0.00 | 84 | 1008.7 |
| 20260507174318 | 68 | 300 | 3.0 | 5.0 | 0.00 | 0.01 | 0.00 | 84 | 1008.8 |
| 20260507173820 | 69 | 281 | 3.0 | 6.0 | 0.00 | 0.01 | 0.00 | 83 | 1008.8 |
| 20260507173317 | 69 | 306 | 3.0 | 7.0 | 0.00 | 0.01 | 0.00 | 82 | 1008.8 |
| 20260507172817 | 69 | 300 | 3.0 | 6.0 | 0.00 | 0.01 | 0.00 | 82 | 1008.8 |
| 20260507172317 | 69 | 302 | 3.0 | 4.0 | 0.00 | 0.01 | 0.00 | 81 | 1008.8 |
| 20260507171818 | 70 | 297 | 3.0 | 7.0 | 0.00 | 0.01 | 0.00 | 80 | 1008.8 |
| 20260507171320 | 70 | 307 | 4.0 | 5.0 | 0.00 | 0.01 | 0.00 | 79 | 1008.9 |
| 20260507170817 | 70 | 301 | 5.0 | 7.0 | 0.00 | 0.01 | 0.00 | 78 | 1008.9 |
| 20260507170320 | 70 | 300 | 3.0 | 7.0 | 0.00 | 0.01 | 0.00 | 78 | 1008.9 |
| 20260507165820 | 71 | 294 | 7.0 | 7.0 | 0.00 | 0.01 | 0.00 | 78 | 1008.8 |
| 20260507165317 | 71 | 302 | 4.0 | 7.0 | 0.00 | 0.01 | 0.00 | 78 | 1008.8 |
| 20260507164820 | 71 | 252 | 4.0 | 7.0 | 0.00 | 0.01 | 0.00 | 78 | 1008.8 |
| 20260507164317 | 71 | 271 | 6.0 | 7.0 | 0.00 | 0.01 | 0.00 | 78 | 1008.8 |
| 20260507163817 | 71 | 261 | 4.0 | 8.0 | 0.00 | 0.01 | 0.00 | 77 | 1008.8 |
| 20260507163320 | 71 | 267 | 7.0 | 10.0 | 0.00 | 0.01 | 0.00 | 77 | 1008.8 |
| 20260507162818 | 71 | 265 | 7.0 | 7.0 | 0.00 | 0.01 | 0.00 | 77 | 1008.7 |
| 20260507162317 | 71 | 267 | 5.0 | 8.0 | 0.00 | 0.01 | 0.00 | 76 | 1008.7 |
| 20260507161817 | 71 | 295 | 3.0 | 6.0 | 0.00 | 0.01 | 0.00 | 76 | 1008.7 |
| 20260507161317 | 72 | 261 | 5.0 | 7.0 | 0.00 | 0.01 | 0.00 | 75 | 1008.9 |
| 20260507160817 | 73 | 248 | 6.0 | 7.0 | 0.00 | 0.01 | 0.00 | 74 | 1008.9 |
| 20260507160320 | 73 | 298 | 1.0 | 6.0 | 0.00 | 0.01 | 0.00 | 73 | 1008.9 |
| 20260507155820 | 73 | 269 | 5.0 | 7.0 | 0.00 | 0.01 | 0.00 | 72 | 1008.9 |
| 20260507155320 | 73 | 242 | 2.0 | 6.0 | 0.00 | 0.01 | 0.00 | 73 | 1008.9 |
| 20260507154817 | 73 | 271 | 6.0 | 6.0 | 0.00 | 0.01 | 0.00 | 73 | 1008.9 |
| 20260507154317 | 73 | 265 | 3.0 | 6.0 | 0.00 | 0.01 | 0.00 | 72 | 1008.8 |
| 20260507153820 | 73 | 218 | 4.0 | 6.0 | 0.00 | 0.01 | 0.00 | 72 | 1008.8 |
| 20260507153317 | 73 | 224 | 4.0 | 5.0 | 0.00 | 0.01 | 0.00 | 72 | 1008.8 |
| 20260507152817 | 73 | 248 | 3.0 | 6.0 | 0.00 | 0.01 | 0.00 | 73 | 1008.9 |
| 20260507152317 | 73 | 250 | 3.0 | 7.0 | 0.00 | 0.01 | 0.00 | 72 | 1008.9 |
| 20260507151817 | 73 | 266 | 5.0 | 7.0 | 0.00 | 0.01 | 0.00 | 72 | 1008.9 |
| 20260507151320 | 73 | 221 | 5.0 | 7.0 | 0.00 | 0.01 | 0.00 | 71 | 1009.0 |
| 20260507150820 | 74 | 306 | 4.0 | 5.0 | 0.00 | 0.01 | 0.00 | 72 | 1009.0 |
| 20260507150320 | 73 | 282 | 3.0 | 6.0 | 0.00 | 0.01 | 0.00 | 71 | 1009.0 |
| 20260507145820 | 73 | 267 | 3.0 | 8.0 | 0.00 | 0.01 | 0.00 | 71 | 1009.2 |
| 20260507145320 | 74 | 236 | 2.0 | 6.0 | 0.00 | 0.01 | 0.00 | 71 | 1009.2 |
| 20260507144817 | 73 | 244 | 0.0 | 6.0 | 0.00 | 0.01 | 0.00 | 70 | 1009.2 |
| 20260507144320 | 74 | 259 | 4.0 | 7.0 | 0.00 | 0.01 | 0.00 | 69 | 1009.2 |
| 20260507143817 | 74 | 322 | 2.0 | 4.0 | 0.00 | 0.01 | 0.00 | 71 | 1009.2 |
| 20260507143317 | 74 | 290 | 4.0 | 4.0 | 0.00 | 0.01 | 0.00 | 70 | 1009.2 |
| 20260507142817 | 73 | 251 | 1.0 | 5.0 | 0.00 | 0.01 | 0.00 | 71 | 1009.3 |
| 20260507142317 | 73 | 290 | 2.0 | 4.0 | 0.00 | 0.01 | 0.00 | 72 | 1009.3 |
| 20260507141817 | 72 | 308 | 1.0 | 5.0 | 0.00 | 0.01 | 0.00 | 71 | 1009.3 |
| 20260507141320 | 73 | 294 | 4.0 | 6.0 | 0.00 | 0.01 | 0.00 | 70 | 1009.6 |
| 20260507140820 | 73 | 302 | 3.0 | 3.0 | 0.00 | 0.01 | 0.00 | 71 | 1009.6 |
| 20260507140320 | 73 | 15 | 0.0 | 4.0 | 0.00 | 0.01 | 0.00 | 70 | 1009.6 |
| 20260507135820 | 73 | 305 | 1.0 | 5.0 | 0.00 | 0.01 | 0.00 | 71 | 1009.8 |
| 20260507135320 | 73 | 285 | 5.0 | 6.0 | 0.00 | 0.01 | 0.00 | 70 | 1009.8 |
| 20260507134816 | 74 | 328 | 2.0 | 4.0 | 0.00 | 0.01 | 0.00 | 70 | 1009.8 |
| 20260507134316 | 73 | 338 | 0.0 | 4.0 | 0.00 | 0.01 | 0.00 | 71 | 1010.0 |
| 20260507133819 | 72 | 310 | 3.0 | 6.0 | 0.00 | 0.01 | 0.00 | 71 | 1010.0 |
| 20260507133320 | 73 | 266 | 2.0 | 6.0 | 0.00 | 0.01 | 0.00 | 71 | 1010.0 |
| 20260507132816 | 72 | 264 | 4.0 | 6.0 | 0.00 | 0.01 | 0.00 | 71 | 1010.3 |
| 20260507132320 | 73 | 251 | 4.0 | 5.0 | 0.00 | 0.01 | 0.00 | 69 | 1010.3 |
| 20260507131819 | 73 | 274 | 3.0 | 5.0 | 0.00 | 0.01 | 0.00 | 70 | 1010.3 |
| 20260507131319 | 73 | 269 | 1.0 | 7.0 | 0.00 | 0.01 | 0.00 | 70 | 1010.3 |
| 20260507130816 | 73 | 258 | 5.0 | 6.0 | 0.00 | 0.01 | 0.00 | 71 | 1010.3 |
| 20260507130316 | 72 | 275 | 1.0 | 6.0 | 0.00 | 0.01 | 0.00 | 73 | 1010.3 |
| 20260507125816 | 72 | 272 | 3.0 | 6.0 | 0.00 | 0.01 | 0.00 | 72 | 1010.5 |
| 20260507125319 | 72 | 227 | 4.0 | 6.0 | 0.00 | 0.01 | 0.00 | 72 | 1010.5 |
| 20260507124819 | 72 | 278 | 3.0 | 7.0 | 0.00 | 0.01 | 0.00 | 72 | 1010.5 |
| 20260507124319 | 71 | 306 | 0.0 | 7.0 | 0.00 | 0.01 | 0.00 | 74 | 1010.7 |
| 20260507123816 | 71 | 270 | 6.0 | 7.0 | 0.00 | 0.01 | 0.00 | 73 | 1010.7 |
| 20260507123320 | 71 | 214 | 3.0 | 8.0 | 0.00 | 0.01 | 0.00 | 75 | 1010.7 |
| 20260507122819 | 71 | 255 | 5.0 | 7.0 | 0.00 | 0.01 | 0.00 | 75 | 1010.8 |
| 20260507122316 | 70 | 263 | 4.0 | 5.0 | 0.00 | 0.01 | 0.00 | 74 | 1010.8 |
| 20260507121816 | 70 | 256 | 1.0 | 8.0 | 0.00 | 0.01 | 0.00 | 75 | 1010.8 |
| 20260507121319 | 70 | 243 | 3.0 | 7.0 | 0.00 | 0.01 | 0.00 | 74 | 1010.7 |
| 20260507120819 | 70 | 241 | 5.0 | 8.0 | 0.00 | 0.01 | 0.00 | 74 | 1010.7 |
| 20260507120319 | 70 | 246 | 5.0 | 8.0 | 0.00 | 0.01 | 0.00 | 74 | 1010.7 |
| 20260507115816 | 70 | 237 | 5.0 | 10.0 | 0.00 | 0.01 | 0.00 | 73 | 1010.8 |
| 20260507115316 | 70 | 241 | 7.0 | 9.0 | 0.00 | 0.01 | 0.00 | 72 | 1010.8 |
| 20260507114819 | 71 | 242 | 5.0 | 11.0 | 0.00 | 0.01 | 0.00 | 73 | 1010.8 |
| 20260507114319 | 70 | 223 | 5.0 | 10.0 | 0.00 | 0.01 | 0.00 | 72 | 1010.8 |
| 20260507113819 | 70 | 202 | 4.0 | 12.0 | 0.00 | 0.01 | 0.00 | 72 | 1010.8 |
| 20260507113316 | 70 | 242 | 6.0 | 12.0 | 0.00 | 0.01 | 0.00 | 71 | 1010.8 |
| 20260507112816 | 71 | 209 | 8.0 | 11.0 | 0.00 | 0.01 | 0.00 | 71 | 1010.9 |
| 20260507112316 | 71 | 229 | 8.0 | 11.0 | 0.00 | 0.01 | 0.00 | 71 | 1010.9 |
| 20260507111819 | 72 | 225 | 6.0 | 12.0 | 0.00 | 0.01 | 0.00 | 71 | 1010.9 |
| 20260507111319 | 72 | 247 | 6.0 | 12.0 | 0.00 | 0.01 | 0.00 | 69 | 1010.9 |
| 20260507110816 | 72 | 241 | 9.0 | 14.0 | 0.00 | 0.01 | 0.00 | 69 | 1010.9 |
| 20260507110319 | 73 | 248 | 5.0 | 13.0 | 0.00 | 0.01 | 0.00 | 68 | 1010.9 |
| 20260507105819 | 74 | 232 | 6.0 | 10.0 | 0.00 | 0.01 | 0.00 | 66 | 1011.0 |
| 20260507105316 | 75 | 264 | 3.0 | 5.0 | 0.00 | 0.01 | 0.00 | 60 | 1011.0 |
| 20260507104816 | 75 | 252 | 0.0 | 4.0 | 0.00 | 0.01 | 0.00 | 60 | 1011.0 |
| 20260507104319 | 74 | 243 | 4.0 | 5.0 | 0.00 | 0.01 | 0.00 | 61 | 1011.0 |
| 20260507103819 | 75 | 184 | 2.0 | 4.0 | 0.00 | 0.01 | 0.00 | 61 | 1011.0 |
| 20260507103319 | 74 | 213 | 2.0 | 5.0 | 0.00 | 0.01 | 0.00 | 60 | 1011.0 |
| 20260507102819 | 75 | 260 | 3.0 | 5.0 | 0.00 | 0.01 | 0.00 | 61 | 1011.0 |
| 20260507102319 | 75 | 259 | 2.0 | 5.0 | 0.00 | 0.01 | 0.00 | 62 | 1011.0 |
| 20260507101816 | 74 | 76 | 2.0 | 3.0 | 0.00 | 0.01 | 0.00 | 61 | 1011.0 |
| 20260507101319 | 75 | 341 | 0.0 | 5.0 | 0.00 | 0.01 | 0.00 | 61 | 1011.1 |
| 20260507100816 | 74 | 85 | 0.0 | 2.0 | 0.00 | 0.01 | 0.00 | 63 | 1011.1 |
| 20260507100316 | 73 | 304 | 2.0 | 3.0 | 0.00 | 0.01 | 0.00 | 61 | 1011.1 |
| 20260507095819 | 74 | 286 | 2.0 | 4.0 | 0.00 | 0.01 | 0.00 | 62 | 1011.2 |
| 20260507095316 | 73 | 266 | 3.0 | 5.0 | 0.00 | 0.01 | 0.00 | 63 | 1011.2 |
| 20260507094816 | 73 | 269 | 2.0 | 4.0 | 0.00 | 0.01 | 0.00 | 64 | 1011.2 |
| 20260507094316 | 73 | 292 | 0.0 | 5.0 | 0.00 | 0.01 | 0.00 | 65 | 1011.2 |
| 20260507093816 | 72 | 304 | 4.0 | 7.0 | 0.00 | 0.01 | 0.00 | 65 | 1011.2 |
| 20260507093316 | 72 | 264 | 3.0 | 4.0 | 0.00 | 0.01 | 0.00 | 65 | 1011.2 |
| 20260507092819 | 72 | 257 | 4.0 | 5.0 | 0.00 | 0.01 | 0.00 | 65 | 1011.1 |
| 20260507092319 | 73 | 63 | 1.0 | 2.0 | 0.00 | 0.01 | 0.00 | 63 | 1011.1 |
| 20260507091819 | 72 | 62 | 0.0 | 4.0 | 0.00 | 0.01 | 0.00 | 64 | 1011.1 |
| 20260507091319 | 73 | 12 | 0.0 | 3.0 | 0.00 | 0.01 | 0.00 | 65 | 1011.1 |
| 20260507090816 | 72 | 65 | 1.0 | 3.0 | 0.00 | 0.01 | 0.00 | 66 | 1011.1 |
| 20260507090316 | 72 | 67 | 0.0 | 4.0 | 0.00 | 0.01 | 0.00 | 65 | 1011.1 |
| 20260507085819 | 72 | 66 | 1.0 | 5.0 | 0.00 | 0.01 | 0.00 | 66 | 1011.3 |
| 20260507085319 | 71 | 53 | 0.0 | 4.0 | 0.00 | 0.01 | 0.00 | 66 | 1011.3 |
| 20260507084819 | 71 | 15 | 3.0 | 5.0 | 0.00 | 0.01 | 0.00 | 67 | 1011.3 |
| 20260507084316 | 71 | 9 | 1.0 | 3.0 | 0.00 | 0.01 | 0.00 | 66 | 1011.3 |
| 20260507083816 | 71 | 26 | 1.0 | 3.0 | 0.00 | 0.01 | 0.00 | 66 | 1011.3 |
| 20260507083316 | 71 | 26 | 3.0 | 4.0 | 0.00 | 0.01 | 0.00 | 65 | 1011.3 |
| 20260507082816 | 70 | 267 | 0.0 | 3.0 | 0.00 | 0.01 | 0.00 | 68 | 1011.3 |
| 20260507082319 | 70 | 44 | 0.0 | 2.0 | 0.00 | 0.01 | 0.00 | 66 | 1011.3 |
| 20260507081819 | 70 | 46 | 0.0 | 2.0 | 0.00 | 0.01 | 0.00 | 66 | 1011.3 |
| 20260507081318 | 69 | 40 | 2.0 | 4.0 | 0.00 | 0.01 | 0.00 | 67 | 1011.3 |
| 20260507080818 | 70 | 340 | 1.0 | 4.0 | 0.00 | 0.01 | 0.00 | 67 | 1011.3 |
| 20260507080318 | 70 | 68 | 2.0 | 3.0 | 0.00 | 0.01 | 0.00 | 69 | 1011.3 |
| 20260507075815 | 69 | 20 | 1.0 | 4.0 | 0.00 | 0.01 | 0.00 | 68 | 1011.3 |
| 20260507075315 | 69 | 34 | 2.0 | 5.0 | 0.00 | 0.01 | 0.00 | 68 | 1011.3 |
| 20260507074818 | 69 | 340 | 2.0 | 6.0 | 0.00 | 0.01 | 0.00 | 70 | 1011.3 |
| 20260507074315 | 69 | 38 | 2.0 | 5.0 | 0.00 | 0.01 | 0.00 | 69 | 1011.7 |
| 20260507073818 | 69 | 74 | 2.0 | 7.0 | 0.00 | 0.01 | 0.00 | 70 | 1011.7 |
| 20260507073318 | 69 | 53 | 3.0 | 7.0 | 0.00 | 0.01 | 0.00 | 70 | 1011.7 |
| 20260507072815 | 69 | 311 | 1.0 | 3.0 | 0.00 | 0.01 | 0.00 | 70 | 1011.9 |
| 20260507072318 | 68 | 46 | 2.0 | 3.0 | 0.00 | 0.01 | 0.00 | 71 | 1011.9 |
| 20260507071818 | 68 | 19 | 1.0 | 4.0 | 0.00 | 0.01 | 0.00 | 71 | 1011.9 |
| 20260507071318 | 68 | 323 | 0.0 | 3.0 | 0.00 | 0.01 | 0.00 | 72 | 1011.9 |
| 20260507070815 | 67 | 13 | 2.0 | 3.0 | 0.00 | 0.01 | 0.00 | 75 | 1011.9 |
| 20260507070315 | 66 | 294 | 1.0 | 4.0 | 0.00 | 0.01 | 0.00 | 75 | 1011.9 |
| 20260507065818 | 67 | 334 | 2.0 | 2.0 | 0.00 | 0.01 | 0.00 | 75 | 1011.8 |
| 20260507065318 | 66 | 336 | 0.0 | 2.0 | 0.00 | 0.01 | 0.00 | 78 | 1011.8 |
| 20260507064815 | 66 | 338 | 1.0 | 2.0 | 0.00 | 0.01 | 0.00 | 79 | 1011.8 |
| 20260507064315 | 66 | 339 | 0.0 | 0.0 | 0.00 | 0.01 | 0.00 | 81 | 1011.7 |
| 20260507063818 | 65 | 339 | 0.0 | 1.0 | 0.00 | 0.01 | 0.00 | 83 | 1011.7 |
| 20260507063316 | 64 | 339 | 0.0 | 0.0 | 0.00 | 0.02 | 0.00 | 84 | 1011.7 |
| 20260507062815 | 64 | 340 | 0.0 | 1.0 | 0.00 | 0.02 | 0.00 | 86 | 1011.5 |
| 20260507062318 | 63 | 340 | 0.0 | 1.0 | 0.00 | 0.02 | 0.00 | 88 | 1011.5 |
| 20260507061816 | 63 | 344 | 0.0 | 0.0 | 0.00 | 0.02 | 0.00 | 89 | 1011.5 |
| 20260507061315 | 63 | 344 | 0.0 | 0.0 | 0.00 | 0.02 | 0.00 | 90 | 1011.4 |
| 20260507060815 | 62 | 344 | 0.0 | 0.0 | 0.00 | 0.02 | 0.00 | 91 | 1011.4 |
| 20260507060315 | 62 | 344 | 0.0 | 0.0 | 0.00 | 0.02 | 0.00 | 91 | 1011.4 |
| 20260507055815 | 61 | 344 | 0.0 | 0.0 | 0.00 | 0.02 | 0.00 | 92 | 1011.5 |
| 20260507055315 | 61 | 344 | 0.0 | 0.0 | 0.00 | 0.03 | 0.00 | 92 | 1011.5 |
| 20260507054815 | 61 | 344 | 0.0 | 0.0 | 0.00 | 0.03 | 0.00 | 92 | 1011.5 |
| 20260507054318 | 61 | 344 | 0.0 | 0.0 | 0.00 | 0.03 | 0.00 | 92 | 1011.4 |
| 20260507053815 | 61 | 344 | 0.0 | 0.0 | 0.00 | 0.03 | 0.00 | 92 | 1011.4 |
| 20260507053315 | 60 | 345 | 0.0 | 0.0 | 0.00 | 0.04 | 0.00 | 92 | 1011.4 |
| 20260507052815 | 60 | 345 | 0.0 | 1.0 | 0.00 | 0.05 | 0.00 | 92 | 1011.4 |
| 20260507052315 | 60 | 344 | 0.0 | 0.0 | 0.00 | 0.05 | 0.00 | 92 | 1011.4 |
| 20260507051815 | 60 | 344 | 0.0 | 0.0 | 0.00 | 0.05 | 0.00 | 92 | 1011.4 |
| 20260507051315 | 60 | 344 | 0.0 | 0.0 | 0.00 | 0.05 | 0.00 | 93 | 1011.4 |
| 20260507050818 | 60 | 344 | 0.0 | 0.0 | 0.00 | 0.05 | 0.00 | 93 | 1011.4 |
| 20260507050315 | 60 | 344 | 0.0 | 0.0 | 0.00 | 0.05 | 0.00 | 93 | 1011.4 |
| 20260507045815 | 60 | 344 | 0.0 | 0.0 | 0.00 | 0.05 | 0.00 | 92 | 1011.3 |
| 20260507045315 | 59 | 344 | 0.0 | 0.0 | 0.00 | 0.05 | 0.00 | 93 | 1011.3 |
| 20260507044815 | 59 | 344 | 0.0 | 1.0 | 0.00 | 0.05 | 0.00 | 93 | 1011.3 |
| 20260507044315 | 59 | 344 | 0.0 | 0.0 | 0.00 | 0.05 | 0.00 | 93 | 1011.3 |
| 20260507043818 | 59 | 344 | 0.0 | 0.0 | 0.00 | 0.05 | 0.00 | 93 | 1011.3 |
| 20260507043315 | 59 | 344 | 0.0 | 1.0 | 0.00 | 0.05 | 0.00 | 93 | 1011.3 |
| 20260507042818 | 59 | 344 | 0.0 | 0.0 | 0.00 | 0.05 | 0.00 | 93 | 1011.4 |
| 20260507042318 | 59 | 344 | 0.0 | 2.0 | 0.00 | 0.05 | 0.00 | 93 | 1011.4 |
| 20260507041818 | 59 | 334 | 0.0 | 2.0 | 0.00 | 0.05 | 0.00 | 93 | 1011.4 |
| 20260507041315 | 59 | 327 | 0.0 | 0.0 | 0.00 | 0.05 | 0.00 | 93 | 1011.3 |
| 20260507040815 | 59 | 327 | 0.0 | 0.0 | 0.00 | 0.05 | 0.00 | 93 | 1011.3 |
| 20260507040318 | 59 | 327 | 0.0 | 0.0 | 0.00 | 0.05 | 0.00 | 93 | 1011.3 |
| 20260507035815 | 59 | 327 | 0.0 | 0.0 | 0.00 | 0.05 | 0.00 | 93 | 1011.1 |
| 20260507035318 | 59 | 327 | 0.0 | 0.0 | 0.00 | 0.05 | 0.00 | 93 | 1011.1 |
| 20260507034815 | 59 | 327 | 0.0 | 0.0 | 0.00 | 0.05 | 0.00 | 93 | 1011.1 |
| 20260507034315 | 59 | 327 | 0.0 | 0.0 | 0.00 | 0.05 | 0.00 | 93 | 1011.1 |
| 20260507033818 | 59 | 327 | 0.0 | 1.0 | 0.00 | 0.05 | 0.00 | 93 | 1011.1 |
| 20260507033315 | 59 | 327 | 0.0 | 1.0 | 0.00 | 0.05 | 0.00 | 93 | 1011.1 |
| 20260507032818 | 60 | 327 | 0.0 | 0.0 | 0.00 | 0.05 | 0.00 | 93 | 1011.1 |
| 20260507032315 | 59 | 327 | 0.0 | 1.0 | 0.00 | 0.05 | 0.00 | 93 | 1011.1 |
| 20260507031815 | 59 | 325 | 0.0 | 1.0 | 0.00 | 0.05 | 0.00 | 93 | 1011.1 |
| 20260507031318 | 59 | 325 | 0.0 | 0.0 | 0.00 | 0.05 | 0.00 | 93 | 1011.1 |
| 20260507030818 | 59 | 324 | 0.0 | 2.0 | 0.00 | 0.05 | 0.00 | 93 | 1011.1 |
| 20260507030315 | 59 | 317 | 0.0 | 0.0 | 0.00 | 0.05 | 0.00 | 93 | 1011.1 |
| 20260507025818 | 59 | 317 | 0.0 | 1.0 | 0.00 | 0.05 | 0.00 | 93 | 1011.2 |
| 20260507025315 | 59 | 317 | 0.0 | 0.0 | 0.00 | 0.05 | 0.00 | 93 | 1011.2 |
| 20260507024818 | 60 | 317 | 0.0 | 0.0 | 0.00 | 0.05 | 0.00 | 93 | 1011.2 |
| 20260507024315 | 60 | 317 | 0.0 | 0.0 | 0.00 | 0.05 | 0.00 | 93 | 1011.2 |
| 20260507023814 | 60 | 317 | 0.0 | 0.0 | 0.00 | 0.05 | 0.00 | 93 | 1011.2 |
| 20260507023315 | 60 | 317 | 0.0 | 0.0 | 0.00 | 0.05 | 0.00 | 93 | 1011.2 |
| 20260507022814 | 59 | 317 | 0.0 | 0.0 | 0.00 | 0.05 | 0.00 | 92 | 1011.1 |
| 20260507022314 | 60 | 317 | 0.0 | 0.0 | 0.00 | 0.05 | 0.00 | 92 | 1011.1 |
| 20260507021814 | 60 | 317 | 0.0 | 0.0 | 0.00 | 0.05 | 0.00 | 92 | 1011.1 |
| 20260507021314 | 60 | 317 | 0.0 | 0.0 | 0.00 | 0.05 | 0.00 | 92 | 1011.1 |
| 20260507020817 | 60 | 317 | 0.0 | 0.0 | 0.00 | 0.05 | 0.00 | 92 | 1011.1 |
| 20260507020317 | 60 | 317 | 0.0 | 0.0 | 0.00 | 0.05 | 0.00 | 92 | 1011.1 |
| 20260507015814 | 60 | 317 | 0.0 | 0.0 | 0.00 | 0.05 | 0.00 | 92 | 1011.2 |
| 20260507015314 | 60 | 317 | 0.0 | 0.0 | 0.00 | 0.05 | 0.00 | 92 | 1011.2 |
| 20260507014817 | 60 | 317 | 0.0 | 0.0 | 0.00 | 0.05 | 0.00 | 92 | 1011.2 |